OBJECT AD, 63237

Orbit data source: Space-Track

You're viewing an Uncataloged Satellite

Recently launched and/or uncataloged satellites may have evolving metadata. Metadata may include but not limited to: Owner, Maufacturer, Bus, Motor, and Mission.

OBJECT AD, 63237 is a satellite in SSO that was launched on Sat, 15 Mar 2025 UTC via an FALCON 9 launch vehicle from the Air Force Western Test Range (AFWTR). Unknown objects in Earth's orbit typically refer to objects detected orbiting the Earth but have not yet been identified or cataloged. These objects could be anything from previously untracked satellites, spent rocket stages, debris from satellite collisions, or even natural meteoroids temporarily captured by Earth's gravity.

Loading next visibility...
Identifier
63237, 2025-052AD
Orbit
SSO
Country
Flag of TBDTBD
Related business
None
Manufacturer
Unknown
Mission
Operational Amateur Communications
Bus & Motor
Unknown
Mass
Unknown
Launch date (UTC)
2025-03-15 (7 months ago)
Launch vehicle
FALCON 9
Launch site
Air Force Western Test Range (AFWTR)
Object type
Unknown
Shape & HBR
Box, 0.1 m
Radar Cross Section
0.015 m², Small (<0.1 m²)

Expand to show TLE details & history
Last TLE update: 16 hours ago

TLE from 16 hours ago
0 OBJECT AD
1 63237U 25052AD  25300.64521223  .00017272  00000-0  73516-3 0  9994
2 63237  97.4154 192.4666 0005098 237.6898 122.3845 15.23047285 34528
Epoch: 2025-10-27T15:29Z
TLE epoch observation values (Epoch: 2025-10-27T15:29:06.336Z)
Latitude
-0.00007°
Longitude
-76.05387°
Altitude
501.628 km
Speed
7.613 km/s
True Right ascension
12h 49m 51s
True Declination
0° 00' 00"
Sunlit
Object was in daylight at epoch
Visualization orbit readout
Latitude
Unknown
Longitude
Unknown
Altitude
Unknown
Speed
Unknown
Apparent Right ascension
Unknown
Apparent Declination
Unknown
Sunlit
N/A
Visualization observer readout
Local Sidereal Time
02:58:38
Azimuth
Unknown
Elevation
Unknown
Doppler factor
Unknown
Orbital elements
Apogee altitude
497.121 km
Perigee altitude
490.114 km
Semi-major axis
6,871.754 km
Eccentricity
0.00051
Inclination
97.4154°
RAAN
192.4666°
Arg. of periapsis
237.6898°
True anomaly
122.43382°
Mean anomaly
122.3845°
Eccentric anomaly
122.40916°
Mean motion
3.81015 °/min
Orbital period
94.48 mins
BSTAR
0.00073516
Loading maneuver chart data...
Computing Atmospheric mass density...
Loading historical data...
Loading historical data...
Loading historical data...
Loading historical data...
Loading historical data...
Loading historical data...
Loading historical data...

Documentation

Showing up to 5 results
|